Tracking 35274 objects as of 12-Sep-2026
HD Live streaming from Space Station
objects crossing your sky now

STARLINK-11237

Track STARLINK-11237 now!
10-day predictions
STARLINK-11237 is classified as:


NORAD ID: 60934
Int'l Code: 2024-155L
Launch date: August 31, 2024
Source: United States (US)
Launch site: AIR FORCE WESTERN TEST RANGE (AFWTR)
Your satellite tracking list
Your tracking list is empty




NASA's NSSDC Master Catalog

Two Line Element Set (TLE):
1 60934U 24155L   26254.13876352 -.00002224  00000-0 -13496-4 0  9992
2 60934  53.1592 146.7332 0001003  74.6560 285.4569 15.69721748117544
Source of the keplerian elements: AFSPC